TimeCDT,TemperatureF,Dew PointF,Humidity,Sea Level PressureIn,VisibilityMPH,Wind Direction,Wind SpeedMPH,Gust SpeedMPH,PrecipitationIn,Events,Conditions,WindDirDegrees,DateUTC
12:53 AM,55.0,48.9,80,30.08,10.0,SE,3.5,-,N/A,,Clear,130,2013-07-03 05:53:00
1:53 AM,52.0,46.9,83,30.09,10.0,ESE,3.5,-,N/A,,Clear,110,2013-07-03 06:53:00
2:53 AM,52.0,45.0,77,30.07,10.0,East,3.5,-,N/A,,Clear,100,2013-07-03 07:53:00
3:53 AM,52.0,46.0,80,30.05,9.0,East,3.5,-,N/A,,Clear,80,2013-07-03 08:53:00
4:53 AM,53.1,46.0,77,30.04,9.0,ESE,8.1,-,N/A,,Clear,120,2013-07-03 09:53:00
5:53 AM,53.1,46.9,80,30.03,9.0,East,4.6,-,N/A,,Clear,90,2013-07-03 10:53:00
6:53 AM,51.1,46.0,83,30.04,7.0,Calm,Calm,-,N/A,,Clear,0,2013-07-03 11:53:00
7:53 AM,57.9,50.0,75,30.03,8.0,ESE,4.6,-,N/A,,Clear,110,2013-07-03 12:53:00
8:53 AM,64.9,51.1,61,30.03,9.0,Calm,Calm,-,N/A,,Clear,0,2013-07-03 13:53:00
9:53 AM,73.9,48.9,41,30.02,10.0,SE,3.5,-,N/A,,Clear,140,2013-07-03 14:53:00
10:53 AM,78.1,46.9,33,29.99,10.0,SW,5.8,-,N/A,,Clear,220,2013-07-03 15:53:00
11:53 AM,82.0,45.0,27,29.98,10.0,South,8.1,-,N/A,,Clear,180,2013-07-03 16:53:00
12:53 PM,84.0,42.1,23,29.95,10.0,SSE,6.9,-,N/A,,Clear,160,2013-07-03 17:53:00
1:53 PM,84.9,43.0,23,29.94,10.0,SSE,9.2,16.1,N/A,,Clear,160,2013-07-03 18:53:00
2:53 PM,86.0,43.0,22,29.91,10.0,SSE,8.1,-,N/A,,Clear,160,2013-07-03 19:53:00
3:53 PM,87.1,43.0,21,29.90,10.0,Variable,3.5,-,N/A,,Clear,0,2013-07-03 20:53:00
4:53 PM,87.1,42.1,21,29.87,10.0,South,6.9,-,N/A,,Clear,190,2013-07-03 21:53:00
5:53 PM,87.1,43.0,21,29.86,10.0,South,6.9,-,N/A,,Clear,180,2013-07-03 22:53:00
6:53 PM,84.0,43.0,24,29.84,10.0,South,8.1,-,N/A,,Clear,170,2013-07-03 23:53:00
7:53 PM,82.9,46.0,27,29.83,10.0,ESE,6.9,-,N/A,,Clear,120,2013-07-04 00:53:00
8:53 PM,73.9,51.1,45,29.84,10.0,ESE,12.7,-,N/A,,Clear,110,2013-07-04 01:53:00
9:53 PM,66.9,51.1,57,29.86,10.0,ESE,10.4,-,N/A,,Clear,120,2013-07-04 02:53:00
10:53 PM,64.0,52.0,65,29.88,10.0,ESE,9.2,-,N/A,,Clear,110,2013-07-04 03:53:00
11:53 PM,62.1,52.0,70,29.88,10.0,East,10.4,-,N/A,,Clear,100,2013-07-04 04:53:00